When you browse on this site, cookies collect data to enhance your experience and personalize the content and advertising you see.
Visit our Privacy Policy to learn more. By continuing to use the site, you agree to this use of cookies and data.
  • Em Portugal
  • Lista de países
  • Para 7 dias
  • Temperatura da água
  • Mapas de satélite
  • Mapa do tempo
  • Widgets de tempo
  • user-avatar
    Iniciar Sessão

    Previsão horária em Barbarka

    Hoje, 20 Junho, Quinta-feira

    Tempo Temperatura Precipitação Vento Pressão Humidade
    00:00 +22°C° 0 mm 1 m/s 749 mmHg 75%
    01:00 +22°C° 0 mm 1 m/s 748 mmHg 76%
    02:00 +22°C° 0 mm 1 m/s 748 mmHg 77%
    03:00 +21°C° 0 mm 1 m/s 748 mmHg 78%
    04:00 +21°C° 0 mm 1 m/s 748 mmHg 80%
    05:00 +21°C° 0.3 mm 2 m/s 748 mmHg 80%
    06:00 +23°C° 0.3 mm 2 m/s 748 mmHg 79%
    07:00 +24°C° 0.3 mm 2 m/s 748 mmHg 79%
    08:00 +25°C° 0 mm 3 m/s 748 mmHg 73%
    09:00 +27°C° 0 mm 3 m/s 748 mmHg 67%
    10:00 +28°C° 0 mm 3 m/s 748 mmHg 61%
    11:00 +29°C° 0 mm 3 m/s 748 mmHg 57%
    12:00 +30°C° 0 mm 3 m/s 748 mmHg 53%
    13:00 +31°C° 0 mm 3 m/s 748 mmHg 49%
    14:00 +31°C° 0 mm 3 m/s 748 mmHg 49%
    15:00 +31°C° 0 mm 2 m/s 748 mmHg 49%
    16:00 +31°C° 0 mm 2 m/s 748 mmHg 49%
    17:00 +29°C° 0.3 mm 3 m/s 748 mmHg 57%
    18:00 +27°C° 0.3 mm 3 m/s 748 mmHg 65%
    19:00 +23°C° 0.3 mm 4 m/s 748 mmHg 73%
    20:00 +22°C° 2 mm 3 m/s 749 mmHg 78%
    21:00 +21°C° 2 mm 2 m/s 749 mmHg 83%
    22:00 +20°C° 2 mm 1 m/s 750 mmHg 88%
    23:00 +20°C° 0 mm 1 m/s 750 mmHg 87%

    Amanhã, 21 Junho, Sexta-feira

    Tempo Temperatura Precipitação Vento Pressão Humidade
    00:00 +20°C° 0 mm 1 m/s 750 mmHg 87%
    01:00 +20°C° 0 mm 1 m/s 750 mmHg 86%
    02:00 +19°C° 0 mm 1 m/s 750 mmHg 87%
    03:00 +18°C° 0 mm 2 m/s 750 mmHg 89%
    04:00 +18°C° 0 mm 2 m/s 751 mmHg 90%
    05:00 +19°C° 0.1 mm 2 m/s 751 mmHg 89%
    06:00 +20°C° 0.1 mm 2 m/s 751 mmHg 88%
    07:00 +20°C° 0.1 mm 2 m/s 752 mmHg 88%
    08:00 +21°C° 0 mm 2 m/s 752 mmHg 84%
    09:00 +23°C° 0 mm 2 m/s 752 mmHg 81%
    10:00 +24°C° 0 mm 2 m/s 752 mmHg 77%
    11:00 +25°C° 0 mm 2 m/s 752 mmHg 71%
    12:00 +26°C° 0 mm 2 m/s 752 mmHg 65%
    13:00 +27°C° 0 mm 1 m/s 752 mmHg 59%
    14:00 +27°C° 1 mm 2 m/s 752 mmHg 63%
    15:00 +26°C° 1 mm 3 m/s 752 mmHg 66%
    16:00 +26°C° 1 mm 3 m/s 752 mmHg 70%
    17:00 +25°C° 0.5 mm 3 m/s 752 mmHg 74%
    18:00 +24°C° 0.5 mm 3 m/s 752 mmHg 78%
    19:00 +24°C° 0.5 mm 2 m/s 752 mmHg 82%
    20:00 +21°C° 0 mm 3 m/s 753 mmHg 86%
    21:00 +20°C° 0 mm 3 m/s 754 mmHg 89%
    22:00 +19°C° 0 mm 3 m/s 754 mmHg 93%
    23:00 +18°C° 0 mm 3 m/s 754 mmHg 93%

    Depois de amanhã, 22 Junho, Sábado

    Tempo Temperatura Precipitação Vento Pressão Humidade
    00:00 +18°C° 0 mm 4 m/s 754 mmHg 94%
    01:00 +16°C° 0 mm 5 m/s 755 mmHg 95%
    02:00 +17°C° 0 mm 4 m/s 755 mmHg 95%
    03:00 +15°C° 0 mm 4 m/s 755 mmHg 95%
    04:00 +14°C° 0 mm 3 m/s 756 mmHg 95%
    05:00 +15°C° 0 mm 4 m/s 756 mmHg 89%
    06:00 +17°C° 0 mm 4 m/s 756 mmHg 84%
    07:00 +18°C° 0 mm 4 m/s 757 mmHg 79%
    08:00 +19°C° 0 mm 4 m/s 757 mmHg 74%
    09:00 +20°C° 0 mm 4 m/s 757 mmHg 69%
    10:00 +22°C° 0 mm 4 m/s 757 mmHg 64%
    11:00 +22°C° 0 mm 4 m/s 757 mmHg 61%
    12:00 +23°C° 0 mm 4 m/s 757 mmHg 59%
    13:00 +23°C° 0 mm 4 m/s 757 mmHg 57%
    14:00 +23°C° 0 mm 5 m/s 756 mmHg 58%
    15:00 +23°C° 0 mm 5 m/s 756 mmHg 60%
    16:00 +23°C° 0 mm 5 m/s 756 mmHg 61%
    17:00 +22°C° 0 mm 5 m/s 756 mmHg 66%
    18:00 +21°C° 0 mm 5 m/s 756 mmHg 71%
    19:00 +19°C° 0 mm 5 m/s 757 mmHg 75%
    20:00 +17°C° 0 mm 5 m/s 757 mmHg 74%
    21:00 +16°C° 0 mm 5 m/s 757 mmHg 72%
    22:00 +14°C° 0 mm 5 m/s 757 mmHg 71%
    23:00 +14°C° 0 mm 4 m/s 757 mmHg 72%

    23 Junho, Domingo

    Tempo Temperatura Precipitação Vento Pressão Humidade
    00:00 +13°C° 0 mm 4 m/s 757 mmHg 74%
    01:00 +12°C° 0 mm 4 m/s 757 mmHg 76%
    02:00 +12°C° 0 mm 4 m/s 757 mmHg 77%
    03:00 +11°C° 0 mm 4 m/s 758 mmHg 78%
    04:00 +11°C° 0 mm 4 m/s 758 mmHg 79%
    05:00 +12°C° 0 mm 4 m/s 758 mmHg 77%
    06:00 +12°C° 0 mm 4 m/s 758 mmHg 75%
    07:00 +13°C° 0 mm 4 m/s 758 mmHg 74%
    08:00 +15°C° 0 mm 4 m/s 758 mmHg 72%
    09:00 +17°C° 0 mm 4 m/s 758 mmHg 70%
    10:00 +19°C° 0 mm 4 m/s 758 mmHg 68%
    11:00 +20°C° 0 mm 4 m/s 758 mmHg 65%
    12:00 +21°C° 0 mm 4 m/s 758 mmHg 63%
    13:00 +22°C° 0 mm 4 m/s 758 mmHg 61%
    14:00 +22°C° 0 mm 5 m/s 758 mmHg 61%
    15:00 +22°C° 0 mm 5 m/s 758 mmHg 61%
    16:00 +22°C° 0 mm 5 m/s 758 mmHg 61%
    17:00 +21°C° 0 mm 4 m/s 758 mmHg 67%
    18:00 +20°C° 0 mm 4 m/s 758 mmHg 72%
    19:00 +19°C° 0 mm 4 m/s 758 mmHg 78%
    20:00 +17°C° 0 mm 3 m/s 759 mmHg 82%
    21:00 +16°C° 0 mm 3 m/s 759 mmHg 87%
    22:00 +14°C° 0 mm 3 m/s 759 mmHg 92%
    23:00 +13°C° 0 mm 3 m/s 759 mmHg 91%

    24 Junho, Segunda-feira

    Tempo Temperatura Precipitação Vento Pressão Humidade
    00:00 +13°C° 0 mm 3 m/s 760 mmHg 90%
    01:00 +12°C° 0 mm 3 m/s 760 mmHg 90%
    02:00 +12°C° 0 mm 3 m/s 760 mmHg 90%
    03:00 +11°C° 0 mm 3 m/s 760 mmHg 90%
    04:00 +11°C° 0 mm 3 m/s 760 mmHg 91%
    05:00 +12°C° 0 mm 3 m/s 760 mmHg 85%
    06:00 +14°C° 0 mm 3 m/s 760 mmHg 80%
    07:00 +17°C° 0 mm 3 m/s 760 mmHg 75%
    08:00 +19°C° 0 mm 3 m/s 760 mmHg 70%
    09:00 +20°C° 0 mm 3 m/s 760 mmHg 65%
    10:00 +22°C° 0 mm 3 m/s 760 mmHg 59%
    11:00 +24°C° 0 mm 3 m/s 760 mmHg 57%
    12:00 +25°C° 0 mm 3 m/s 760 mmHg 55%
    13:00 +26°C° 0 mm 3 m/s 760 mmHg 52%
    14:00 +26°C° 0 mm 3 m/s 760 mmHg 52%
    15:00 +26°C° 0 mm 3 m/s 760 mmHg 51%
    16:00 +26°C° 0 mm 3 m/s 760 mmHg 51%
    17:00 +25°C° 0 mm 3 m/s 760 mmHg 58%
    18:00 +24°C° 0 mm 3 m/s 760 mmHg 66%
    19:00 +22°C° 0 mm 3 m/s 760 mmHg 74%
    20:00 +20°C° 0 mm 3 m/s 760 mmHg 79%
    21:00 +19°C° 0 mm 3 m/s 761 mmHg 84%
    22:00 +17°C° 0 mm 3 m/s 761 mmHg 89%
    23:00 +16°C° 0 mm 3 m/s 761 mmHg 90%

    25 Junho, Terça-feira

    Tempo Temperatura Precipitação Vento Pressão Humidade
    00:00 +16°C° 0 mm 3 m/s 761 mmHg 92%
    01:00 +15°C° 0 mm 2 m/s 761 mmHg 93%
    02:00 +15°C° 0 mm 2 m/s 761 mmHg 94%
    03:00 +15°C° 0 mm 2 m/s 761 mmHg 94%
    04:00 +14°C° 0 mm 2 m/s 761 mmHg 95%
    05:00 +16°C° 0 mm 2 m/s 762 mmHg 89%
    06:00 +18°C° 0 mm 2 m/s 762 mmHg 83%
    07:00 +19°C° 0 mm 3 m/s 762 mmHg 77%
    08:00 +21°C° 0 mm 3 m/s 762 mmHg 71%
    09:00 +22°C° 0 mm 3 m/s 762 mmHg 66%
    10:00 +25°C° 0 mm 3 m/s 762 mmHg 60%
    11:00 +25°C° 0 mm 3 m/s 762 mmHg 56%
    12:00 +26°C° 0 mm 3 m/s 762 mmHg 51%
    13:00 +27°C° 0 mm 3 m/s 762 mmHg 47%
    14:00 +27°C° 0 mm 3 m/s 762 mmHg 47%
    15:00 +27°C° 0 mm 3 m/s 762 mmHg 48%
    16:00 +27°C° 0 mm 3 m/s 761 mmHg 48%
    17:00 +25°C° 0 mm 3 m/s 761 mmHg 55%
    18:00 +24°C° 0 mm 3 m/s 762 mmHg 63%
    19:00 +22°C° 0 mm 3 m/s 762 mmHg 70%
    20:00 +20°C° 0 mm 3 m/s 762 mmHg 74%
    21:00 +19°C° 0 mm 3 m/s 762 mmHg 78%
    22:00 +17°C° 0 mm 3 m/s 763 mmHg 82%
    23:00 +16°C° 0 mm 3 m/s 762 mmHg 85%
    Mostrar mais